Weather Roundup
Issued by NWS Chicago, IL

Home | Current Version | Previous Version | Graphics & Text | Print | Product List | Glossary On
Versions: 1 2 3 4 5 6 7 8 9 10 11 12 13 14 15 16 17 18 19 20 21 22 23 24 25 26 27 28 29 30 31 32 33 34 35 36 37 38 39 40 41 42 43 44 45 46 47 48 49 50
000
NZUS59 KLOT 130258
HRRLOT

CHICAGO AREA WEATHER ROUNDUP
NATIONAL WEATHER SERVICE CHICAGO/ROMEOVILLE IL
1000 PM CDT SAT JUL 12 2014

NOTE: "FAIR" INDICATES FEW OR NO CLOUDS BELOW 12,000 FEET WITH NO
SIGNIFICANT WEATHER AND/OR OBSTRUCTIONS TO VISIBILITY.

* THESE STATIONS ARE NOT UNDER NWS QUALITY CONTROL. THEY ALSO MAY NOT
  REPORT WEATHER SUCH AS PRECIPITATION OR FOG.

ILZ005-006-012>014-019>023-130400-
NORTHEAST ILLINOIS

CITY           SKY/WX    TMP DP  RH WIND       PRES   REMARKS
OHARE          LGT RAIN  78  72  81 S9        29.84F HX  80
MIDWAY         LGT RAIN  80  77  90 S13       29.84F HX  87
AURORA         LGT RAIN  78  75  90 S8        29.88R HX  81
WAUKEGAN       CLOUDY    75  71  87 S12       29.81F
DUPAGE AIRPORT CLOUDY    78  75  90 S9        29.86S THUNDER HX  81
WHEELING       CLOUDY    79  74  84 S12       29.85R HX  82
NORTHERLY IS     N/A     77  75  93 S12         N/A
$$

WIZ051-052-058>065-066-070>072-130400-
SOUTHEAST WISCONSIN

CITY           SKY/WX    TMP DP  RH WIND       PRES   REMARKS
MILWAUKEE      TSTM      69  67  93 CALM      29.85F VSB 1
KENOSHA*       CLOUDY    75  73  93 S7        29.82F THUNDER
RACINE*        LGT RAIN  70  68  94 CALM      29.85S
$$

INZ001>003-010>013-019-020-130400-
NORTHWEST INDIANA

CITY           SKY/WX    TMP DP  RH WIND       PRES   REMARKS
GARY*          CLOUDY    77  75  94 S7        29.89F
MICHIGAN CITY* NOT AVBL
RENSSELAER*    NOT AVBL
$$

LMZ740>746-130400-
SOUTHERN LAKE MICHIGAN

STATION/POSITION TIME  SKY/WX   TEMP WIND        PRES    VSBY
                                AIR  DIR/SP/G
                 (UTC)          (F)  (DEG/KT/KT) (MB)    (MI)
HARRISON CRIB    0200            72  150/ 13/ 14   N/A
BURNHAM HARBOR   0200            68  170/  4/  6   N/A
CALUMET HARBOR   0200            77  170/  7/ 10 1012.3F
BURNS HARBOR     0200            77  170/  8/ 15 1012.5F
MICHIGAN CITY    0200            76  140/ 10/ 15   N/A
$$

ABBREVIATIONS USED IN REMARKS
   TC - TEMPERATURE IN CELSIUS
  WCI - WIND CHILL INDEX
   HX - HEAT INDEX
  VSB - VISIBILITY
$$


USA.gov is the U.S. government's official web portal to all federal, state and local government web resources and services.